Mackall AAF, NC

5:52 AM EST on December 17, 2017 (GMT -0500)
Mackall Army Air Field

Weather History for KHFF - May, 2013

Change the Weather History Date:

Sunday, May 19, 2013

  Actual Average Record
Temperature  
Mean Temperature 73 °F -  
Max Temperature 79 °F 79 °F 95 °F (2000)
Min Temperature 67 °F 59 °F 43 °F (2007)
Cooling Degree Days 8    
Growing Degree Days 23 (Base 50)    
Moisture  
Dew Point 67 °F    
Average Humidity 87    
Maximum Humidity 100    
Minimum Humidity 61    
Precipitation  
Precipitation 0.23 in - - ()
Sea Level Pressure  
Sea Level Pressure 30.12 in    
Wind  
Wind Speed 5 mph (SSE)    
Max Wind Speed 17 mph    
Max Gust Speed 29 mph    
Visibility 10 miles    
Events Rain , Thunderstorm    
Averages and records for this station are not official NWS values.
T = Trace of Precipitation, MM = Missing Value Source: NWS Daily Summary

Daily Weather History Graph

Daily Weather History Graph

Search for Another Location

Airport or City:

Trip Planner

Search our weather history database for the weather conditions in past years. The results will help you decide how hot, cold, wet, or windy it might be!

Date:

Astronomy

May. 19, 2013 Rise Set
Actual Time 6:11 AM EDT 8:18 PM EDT
Civil Twilight 5:42 AM EDT 8:46 PM EDT
Nautical Twilight 5:08 AM EDT 9:21 PM EDT
Astronomical Twilight 4:31 AM EDT 9:58 PM EDT
Moon 2:33 PM EDT (5/19) 2:19 AM EDT (5/19)
Length of Visible Light 15h 03m
Length of Day
14h 06m
Waxing Gibbous, 65% of the Moon is Illuminated
May 19
Waxing Gibbous
May 25
Full
May 31
Last Quarter
Jun 8
New
Jun 16
First Quarter

Hourly Weather History & Observations

Time (EDT) Temp. Dew Point Humidity Pressure Visibility Wind Dir Wind Speed Gust Speed Precip Events Conditions
12:56 AM 67.8 °F 66.4 °F 95% 30.14 in 7.0 mi South 1.2 mph - N/A   Mostly Cloudy
1:41 AM 68.0 °F 66.2 °F 94% 30.14 in 6.0 mi Variable 1.2 mph - N/A   Mostly Cloudy
1:56 AM 67.6 °F 66.2 °F 95% 30.13 in 6.0 mi SE 2.3 mph - N/A   Mostly Cloudy
2:01 AM 68.0 °F 66.2 °F 94% 30.13 in 5.0 mi SSE 2.3 mph - N/A   Mostly Cloudy
2:06 AM 68.0 °F 66.2 °F 94% 30.13 in 5.0 mi SSE 2.3 mph - N/A   Mostly Cloudy
2:11 AM 68.0 °F 66.2 °F 94% 30.13 in 5.0 mi SE 2.3 mph - N/A   Mostly Cloudy
2:56 AM 67.3 °F 65.8 °F 95% 30.13 in 6.0 mi Variable 2.3 mph - N/A   Mostly Cloudy
3:16 AM 68.0 °F 66.2 °F 94% 30.12 in 6.0 mi SSE 1.2 mph - N/A   Mostly Cloudy
3:51 AM 68.0 °F 66.2 °F 94% 30.12 in 6.0 mi ESE 2.3 mph - N/A   Mostly Cloudy
3:56 AM 67.5 °F 66.0 °F 95% 30.12 in 6.0 mi SE 2.3 mph - N/A   Mostly Cloudy
4:56 AM 67.5 °F 66.0 °F 95% 30.12 in 5.0 mi SE 4.6 mph - N/A   Mostly Cloudy
4:57 AM 68.0 °F 66.2 °F 94% 30.12 in 5.0 mi ESE 3.5 mph - N/A   Mostly Cloudy
5:20 AM 68.0 °F 66.2 °F 94% 30.12 in 7.0 mi SE 4.6 mph - N/A Rain Light Rain
5:56 AM 68.2 °F 66.7 °F 95% 30.13 in 6.0 mi SSE 3.5 mph - 0.02 in Rain Light Rain Showers
6:51 AM 68.0 °F 66.2 °F 94% 30.13 in 8.0 mi SE 3.5 mph - N/A   Mostly Cloudy
6:56 AM 68.5 °F 66.9 °F 95% 30.14 in 8.0 mi SE 3.5 mph - 0.06 in   Mostly Cloudy
7:01 AM 68.0 °F 66.2 °F 94% 30.14 in 8.0 mi SE 4.6 mph - N/A   Mostly Cloudy
7:21 AM 68.0 °F 66.2 °F 94% 30.15 in 5.0 mi ESE 2.3 mph - N/A   Mostly Cloudy
7:56 AM 68.7 °F 67.3 °F 95% 30.15 in 5.0 mi SE 3.5 mph - N/A   Mostly Cloudy
8:01 AM 68.0 °F 68.0 °F 100% 30.15 in 5.0 mi SSE 4.6 mph - N/A   Mostly Cloudy
8:21 AM 69.8 °F 68.0 °F 94% 30.16 in 6.0 mi South 4.6 mph - N/A   Mostly Cloudy
8:46 AM 69.8 °F 66.2 °F 88% 30.17 in 12.0 mi SSW 10.4 mph - N/A   Mostly Cloudy
8:51 AM 69.8 °F 66.2 °F 88% 30.17 in 12.0 mi SSW 8.1 mph - N/A   Mostly Cloudy
8:56 AM 69.3 °F 66.9 °F 92% 30.17 in 12.0 mi SSW 8.1 mph - N/A   Mostly Cloudy
8:57 AM 69.8 °F 66.2 °F 88% 30.17 in 11.0 mi SSW 8.1 mph - N/A Rain Light Rain
9:56 AM 68.9 °F 65.5 °F 89% 30.17 in 11.0 mi SSW 9.2 mph - 0.03 in Rain Rain Showers
10:56 AM 70.0 °F 67.3 °F 91% 30.17 in 12.0 mi SSE 4.6 mph - 0.09 in Rain Light Rain
11:13 AM 71.6 °F 68.0 °F 88% 30.16 in 12.0 mi SSE 9.2 mph - N/A   Mostly Cloudy
11:18 AM 71.6 °F 68.0 °F 88% 30.16 in 12.0 mi South 10.4 mph - N/A   Mostly Cloudy
11:28 AM 71.6 °F 68.0 °F 88% 30.16 in 12.0 mi SSE 9.2 mph - N/A   Mostly Cloudy
11:56 AM 71.8 °F 66.9 °F 85% 30.16 in 12.0 mi SE 6.9 mph - N/A   Mostly Cloudy
12:11 PM 73.4 °F 66.2 °F 78% 30.16 in 12.0 mi SSE 6.9 mph - N/A Thunderstorm Mostly Cloudy
12:21 PM 73.4 °F 66.2 °F 78% 30.16 in 12.0 mi SE 8.1 mph - N/A Thunderstorm Scattered Clouds
12:56 PM 74.7 °F 67.1 °F 77% 30.14 in 12.0 mi SSE 6.9 mph - N/A   Scattered Clouds
1:06 PM 75.2 °F 68.0 °F 78% 30.14 in 12.0 mi South 11.5 mph - N/A   Mostly Cloudy
1:21 PM 75.2 °F 66.2 °F 73% 30.13 in 12.0 mi South 9.2 mph - N/A   Mostly Cloudy
1:56 PM 77.2 °F 66.9 °F 71% 30.11 in 12.0 mi South 10.4 mph - N/A   Scattered Clouds
2:56 PM 77.0 °F 67.1 °F 71% 30.10 in 12.0 mi SSE 12.7 mph - N/A   Mostly Cloudy
3:41 PM 77.0 °F 66.2 °F 69% 30.08 in 12.0 mi South 10.4 mph - N/A   Mostly Cloudy
3:46 PM 77.0 °F 66.2 °F 69% 30.08 in 12.0 mi South 10.4 mph - N/A   Mostly Cloudy
3:56 PM 79.0 °F 67.1 °F 67% 30.08 in 12.0 mi SSE 10.4 mph - N/A   Scattered Clouds
4:01 PM 78.8 °F 66.2 °F 65% 30.08 in 12.0 mi South 9.2 mph - N/A   Mostly Cloudy
4:21 PM 78.8 °F 64.4 °F 61% 30.08 in 12.0 mi SSE 12.7 mph - N/A   Mostly Cloudy
4:36 PM 78.8 °F 66.2 °F 65% 30.08 in 12.0 mi South 9.2 mph - N/A   Mostly Cloudy
4:41 PM 77.0 °F 66.2 °F 69% 30.08 in 12.0 mi South 9.2 mph - N/A   Mostly Cloudy
4:56 PM - - N/A% - 12.0 mi SSW 9.2 mph - N/A   Mostly Cloudy
5:56 PM 77.0 °F 67.1 °F 71% 30.07 in 12.0 mi SSE 5.8 mph - N/A   Scattered Clouds
6:21 PM 73.4 °F 66.2 °F 78% 30.09 in 12.0 mi South 15.0 mph 28.8 mph N/A   Mostly Cloudy
6:22 PM 73.4 °F 66.2 °F 78% 30.08 in 12.0 mi South 17.3 mph 28.8 mph N/A Rain Light Rain
6:42 PM 69.8 °F 68.0 °F 94% 30.09 in 11.0 mi South 15.0 mph 20.7 mph N/A Rain Light Rain Showers
6:56 PM 70.0 °F 67.1 °F 91% 30.09 in 12.0 mi SSW 10.4 mph - 0.01 in Rain Light Rain Showers
7:38 PM 69.8 °F 66.2 °F 88% 30.10 in 12.0 mi South 8.1 mph - N/A   Mostly Cloudy
7:56 PM 69.1 °F 66.6 °F 92% 30.10 in 12.0 mi South 6.9 mph - 0.02 in   Mostly Cloudy
8:31 PM 68.0 °F 66.2 °F 94% 30.10 in 12.0 mi South 4.6 mph - N/A   Mostly Cloudy
8:36 PM 69.8 °F 66.2 °F 88% 30.10 in 12.0 mi SSE 4.6 mph - N/A   Mostly Cloudy
8:46 PM 69.8 °F 66.2 °F 88% 30.10 in 12.0 mi SSE 6.9 mph - N/A   Mostly Cloudy
8:56 PM 68.7 °F 66.4 °F 92% 30.10 in 12.0 mi SSE 5.8 mph - N/A   Mostly Cloudy
9:11 PM 68.0 °F 66.2 °F 94% 30.10 in 12.0 mi SSE 4.6 mph - N/A   Mostly Cloudy
9:56 PM 68.4 °F 66.4 °F 93% 30.12 in 12.0 mi SSE 3.5 mph - N/A   Mostly Cloudy
10:01 PM 68.0 °F 66.2 °F 94% 30.12 in 12.0 mi SE 5.8 mph - N/A   Mostly Cloudy
10:56 PM 68.2 °F 66.2 °F 93% 30.13 in 8.0 mi SE 2.3 mph - N/A   Mostly Cloudy
11:06 PM 68.0 °F 66.2 °F 94% 30.13 in 12.0 mi SSE 3.5 mph - N/A   Mostly Cloudy
11:56 PM 68.7 °F 66.9 °F 94% 30.13 in 12.0 mi SE 4.6 mph - N/A   Overcast